SCP
0 0 0 0 0 0 0 0 0 0 0 0 0 0 0 0 0 0 0 0 0 0 0 0 0 0 0 0 0 0 0 0 0 0 0 0 0 0 0 0 0 0 0 0
0 0 0 0 0 0 0 0 0 0 0 0 0 0 0 0 0 0 0 0 0 0 0 0 0 0 0 0 0 0 0 0 0 0 0 0 0 0 0 0 0 0 0 0
0 0 0 0 0 0 0 0 0 0 0 0 0 0 0 0 0 0 0 0 0 0 0 0 0 0 0 0 0 0 0 0 0 0 0 0 0 0 0 0 0 0 0 0
0 0 0 0 0 0 0 0 0 0 0 0 0 0 0 0 0 0 0 0 0 0 0 0 0 0 0 0 0 0 0 0 0 0 0 0 0 0 0 -0 0 0 0 0
0 0 0 0 0 0 0 0 0 0 0 0 0 0 0 0 0 0 0 0 0 0 0 0 0 0 0 0 0 0 0 0 0 0 0 0 0 0 0 -0 -0 0 0 0
0 0 0 0 0 0 0 0 0 0 0 0 0 0 0 0 0 0 0 0 0 0 0 0 0 0 0 0 0 0 0 0 0 0 0 0 0 0 0 0 0 0 0 0
0 0 0 0 0 0 0 0 0 0 0 0 0 0 0 0 0 0 0 0 0 0 0 0 0 -0 -0 -0 0 0 0 0 0 0 0 0 0 0 0 0 0 0 0 0
0 0 0 0 0 0 0 0 0 0 0 0 0 0 0 0 0 0 0 0 0 0 0 -0 -0 -0 -0 -0 0 0 0 0 0 0 0 0 0 0 0 0 0 0 0 0
0 0 0 0 0 0 0 0 0 0 0 0 0 0 0 0 0 0 0 0 0 0 0 -0 -0 -0 -0 -0 0 0 0 0 0 0 0 0 0 0 0 0 0 0 0 0
0 0 0 0 0 0 0 0 0 0 0 0 0 0 0 0 0 0 0 0 0 0 0 -0 -0 -0 -0 -0 0 0 0 0 0 0 0 0 0 -0 0 0 0 0 0 0
0 0 0 0 0 0 0 0 0 0 0 0 0 0 0 0 0 0 0 0 0 0 0 0 -0 -0 -0 0 0 0 0 0 0 0 0 0 0 0 0 0 0 0 0 0
0 0 0 0 0 0 0 0 0 0 0 0 0 0 0 0 0 0 0 0 0 0 0 0 0 0 0 0 0 0 0 0 0 0 0 -0 -0 0 0 0 0 0 0 0
0 0 0 0 0 0 0 0 0 0 0 0 0 0 0 0 0 0 0 0 0 0 0 0 0 0 0 0 0 0 0 0 0 0 -0 -0 0 0 0 0 0 0 0 0
0 0 0 0 0 0 0 0 0 0 0 0 0 0 0 0 0 0 0 0 0 0 0 0 0 0 0 0 0 0 0 0 0 0 -0 -0 0 0 0 0 0 0 0 0
0 0 0 0 0 0 0 0 0 0 0 0 0 0 0 0 0 0 0 0 0 0 0 0 0 0 0 0 0 0 0 0 0 0 0 0 0 0 0 0 0 0 0 0
0 0 0 0 0 0 0 0 0 0 0 0 0 0 0 0 0 0 0 0 0 -0 0 0 0 0 0 0 0 0 0 0 0 0 0 0 0 0 0 0 0 0 0 0
0 0 0 0 0 0 0 0 0 0 0 0 0 0 0 0 0 0 0 0 0 -0 -0 0 0 0 0 0 0 0 0 0 0 0 0 0 0 0 0 0 0 0 0 0
0 0 0 0 0 0 0 0 0 0 0 0 0 0 0 0 0 0 0 0 0 0 0 0 0 0 0 0 0 0 0 0 0 0 0 0 0 0 0 0 0 0 0 0
0 0 0 0 0 0 0 0 0 0 0 0 0 0 0 0 0 0 0 0 0 0 0 0 0 0 0 0 0 0 0 0 0 0 0 0 0 0 0 0 0 0 0 0
0 0 0 0 0 0 0 0 0 0 0 0 0 0 0 0 0 0 0 0 0 0 0 0 0 0 0 0 0 0 0 0 0 -0 0 0 0 0 0 0 0 0 0 0
0 0 0 0 0 0 0 0 0 0 0 0 0 0 0 0 0 0 0 0 0 0 0 0 0 0 0 0 0 0 0 0 0 0 0 0 0 0 0 0 0 0 0 0
0 0 0 0 0 0 0 0 0 0 0 0 0 0 0 0 0 0 0 0 0 0 0 0 0 0 0 0 0 0 0 0 0 0 0 0 0 0 0 0 0 0 0 0
0 0 0 0 0 0 0 0 0 0 0 0 0 0 0 0 0 0 0 0 0 0 0 0 0 0 0 0 0 0 0 0 0 0 0 0 0 0 0 0 0 0 0 0
0 0 0 0 0 0 0 0 0 0 0 0 0 0 0 0 0 0 0 0 0 0 0 0 0 0 0 0 0 -0 0 0 0 0 0 0 0 0 0 0 0 0 0 0
0 0 0 0 0 0 0 0 0 0 0 0 0 0 0 0 0 0 0 0 0 0 0 0 0 0 0 0 0 -0 -0 0 0 0 0 0 0 0 0 0 0 0 0 0
0 0 0 0 0 0 0 0 0 0 0 0 0 0 0 0 0 0 0 0 0 0 0 0 0 0 0 0 0 -0 -0 -0 -0 0 0 0 0 0 0 0 0 0 0 0
Wind_Speed
1 2 4 7 7 6 3 3 5 4 0 2 1 1 1 1 3 3 3 4 5 4 4 5 5 5 6 6 6 5 5 4 5 4 3 3 2 2 2 1 2 2 2 3
2 5 8 5 4 4 3 3 4 2 1 2 1 1 1 2 3 3 5 6 6 5 4 4 5 4 5 6 6 6 5 5 4 3 3 3 3 2 2 2 2 2 2 2
6 7 2 2 2 3 4 5 5 3 2 3 2 2 1 1 1 2 3 5 6 8 7 6 6 4 5 6 7 6 5 5 4 5 4 4 3 3 2 2 1 2 1 2
6 6 2 2 3 4 4 4 5 4 3 1 1 2 4 2 3 4 5 6 7 7 7 7 7 6 6 6 6 6 5 5 4 5 5 5 4 3 2 1 1 2 2 2
6 3 2 3 4 4 3 3 4 3 3 1 1 1 6 1 4 7 8 8 9 9 9 9 8 7 6 6 6 5 5 4 4 4 5 5 4 3 2 2 3 3 3 3
6 3 3 4 1 4 5 6 6 5 5 1 2 2 6 5 8 7 8 9 9 9 9 8 6 5 5 5 5 6 6 4 4 5 5 6 6 5 4 3 3 2 2 2
4 3 2 4 4 2 4 6 4 4 4 4 1 2 9 7 7 9 11 11 10 9 9 9 8 8 7 7 7 6 6 5 5 5 5 5 6 6 5 4 3 2 1 1
3 5 3 4 6 7 5 7 7 4 4 4 2 5 8 4 4 5 7 8 9 9 9 10 10 10 9 9 8 7 7 6 5 5 5 4 5 4 3 4 3 3 2 2
7 6 2 2 3 9 6 3 5 7 2 1 4 6 8 1 2 4 6 7 9 10 10 10 10 10 9 10 9 9 8 6 6 6 5 5 5 4 4 3 3 2 2 2
8 4 3 1 4 4 5 8 6 6 5 2 5 5 5 5 6 6 7 10 10 10 10 10 10 10 9 9 8 7 8 8 6 6 6 5 5 5 4 4 4 3 3 2
5 5 2 1 3 5 4 4 5 4 4 5 3 8 8 9 9 10 11 11 11 12 11 10 9 9 8 7 7 7 7 7 6 7 6 5 5 5 4 4 4 4 3 3
4 5 2 3 1 2 4 7 8 6 4 4 4 9 5 7 8 9 11 10 10 11 11 9 9 8 8 9 8 8 8 8 7 7 6 6 5 5 5 4 4 4 4 3
5 6 2 4 4 0 2 4 4 6 6 5 5 9 3 2 5 6 8 8 9 9 9 8 8 9 9 9 9 9 9 9 7 7 7 6 5 5 6 5 4 4 4 3
6 4 6 9 7 4 3 4 5 6 5 6 8 8 5 4 6 7 7 8 8 9 10 10 9 9 9 9 9 9 9 8 8 7 7 7 7 7 6 5 5 5 4 4
5 4 5 5 4 3 4 5 8 7 8 9 8 8 10 8 10 10 9 8 8 9 10 12 12 10 9 9 8 9 9 8 8 8 8 8 7 6 5 5 5 5 5 5
3 3 2 2 3 3 4 6 8 8 5 7 5 9 8 4 4 5 7 10 10 11 12 12 12 11 11 12 11 9 9 9 8 9 9 7 6 6 6 6 5 5 5 4
2 5 4 3 2 1 5 7 7 5 5 7 9 10 3 3 6 9 9 10 12 12 12 13 13 13 13 13 12 12 11 8 8 8 8 7 7 7 7 6 5 6 5 4
5 4 3 2 2 5 8 2 4 5 5 5 6 6 5 7 5 4 6 9 10 10 11 11 11 11 10 9 9 9 8 9 9 8 8 7 7 7 6 6 6 6 4 4
4 6 4 3 3 5 5 2 3 4 5 4 4 5 4 2 2 1 3 5 8 9 9 10 10 9 9 9 9 9 8 8 8 8 8 8 8 8 7 7 7 5 4 5
4 4 5 3 3 6 7 2 2 3 5 3 3 3 1 3 3 4 2 3 4 3 4 5 6 7 8 8 9 10 9 9 10 10 8 7 7 8 8 7 6 5 5 6
2 3 3 4 4 7 5 1 3 4 7 2 2 2 1 2 3 2 0 2 3 3 3 5 7 7 7 8 10 9 8 9 8 6 5 5 6 6 6 5 4 4 4 4
5 4 4 4 3 8 2 1 5 5 2 0 1 1 2 1 1 3 2 2 3 4 5 6 6 5 5 7 9 8 7 6 5 5 5 5 5 5 5 5 4 4 4 5
5 6 5 7 7 4 1 3 2 1 1 1 0 1 2 2 3 4 4 4 5 5 5 5 7 7 5 5 7 7 5 5 6 5 4 4 4 3 4 4 4 3 4 4
3 2 2 3 6 4 4 3 2 2 1 0 1 2 3 4 4 4 4 5 6 5 5 5 8 7 5 4 4 4 4 5 6 5 4 3 3 3 2 2 3 4 4 4
4 3 2 4 6 4 3 2 2 2 3 3 4 4 4 5 5 4 4 4 4 5 5 5 7 6 5 4 3 3 4 6 5 4 3 2 2 2 2 3 4 5 6 6
5 6 6 6 5 3 2 1 3 5 4 4 6 7 5 5 5 5 5 4 4 5 5 6 6 6 4 4 3 2 3 5 5 3 2 2 1 2 2 3 4 7 8 10
Wind_Direction
110 92 228 224 199 204 209 228 263 272 229 109 129 171 220 171 141 143 151 154 153 152 139 135 124 126 133 129 129 130 131 129 126 122 123 120 118 102 86 91 101 105 112 112
30 259 238 221 198 196 208 227 258 296 71 103 109 304 233 180 188 182 173 170 169 153 139 145 138 149 149 143 140 140 144 138 136 130 125 122 120 110 95 64 65 73 102 114
207 243 229 191 222 204 221 198 214 196 76 59 79 348 255 234 196 191 179 169 166 163 166 163 156 156 149 152 153 154 148 139 134 126 110 94 80 68 62 52 45 27 74 111
234 252 235 253 246 181 239 219 177 145 123 302 105 257 266 212 212 209 197 184 181 175 175 178 169 165 164 162 148 141 140 136 132 131 129 131 131 131 146 131 93 45 52 90
240 227 201 239 244 176 185 82 92 101 121 66 32 173 278 181 216 222 206 197 194 184 181 184 180 174 169 155 142 138 139 134 133 132 135 128 121 125 116 102 90 67 47 56
248 240 209 203 71 124 126 74 62 55 71 1 239 184 267 216 210 207 201 200 195 185 179 177 173 163 157 147 143 146 143 141 141 137 136 139 138 138 132 125 115 89 60 49
288 278 221 149 109 69 100 93 36 358 5 257 253 223 253 239 211 195 192 196 192 185 177 175 175 174 170 167 165 159 155 155 152 143 142 147 149 150 153 153 147 138 116 92
216 280 238 185 171 170 175 143 157 201 230 277 296 247 256 255 213 191 182 180 178 182 183 185 187 183 180 177 174 168 169 164 161 154 155 153 153 150 154 159 156 159 165 176
186 243 277 204 154 139 141 160 155 129 139 296 281 282 299 228 192 181 176 174 184 186 187 189 186 184 183 182 182 178 174 170 171 168 160 161 162 162 164 161 157 162 178 186
166 215 270 194 90 48 132 138 106 122 145 255 292 275 250 227 208 195 191 193 195 189 189 190 188 187 187 185 179 173 174 178 176 172 172 175 176 175 168 162 174 183 193 190
151 167 283 49 169 173 118 107 109 112 147 157 250 271 226 205 196 193 200 198 194 192 193 194 192 188 181 174 172 176 176 173 174 178 178 172 176 174 171 178 190 192 196 196
149 132 218 257 260 168 161 165 150 152 197 173 181 266 263 206 197 190 196 197 194 193 193 191 186 178 177 179 180 181 180 181 183 178 174 177 173 170 178 193 199 195 202 210
135 120 97 346 340 311 166 159 151 127 120 154 175 261 300 200 194 197 195 194 190 189 187 182 179 182 187 187 186 185 185 186 179 170 172 175 178 184 195 203 202 200 208 219
116 132 171 194 213 202 198 175 155 136 151 190 217 245 275 228 210 207 200 193 187 188 187 184 188 191 191 189 187 186 187 182 174 171 176 186 194 197 201 202 203 207 209 219
117 173 211 229 221 192 207 197 178 189 190 188 224 226 245 225 212 207 194 184 182 188 190 192 193 193 189 187 187 185 184 179 174 174 187 200 199 196 197 203 210 211 215 225
110 161 169 251 223 207 229 226 206 212 206 218 242 258 248 240 199 195 187 181 191 197 198 197 194 190 190 190 188 184 184 180 173 182 196 198 191 194 202 208 209 212 222 229
134 140 140 235 282 70 254 227 202 207 206 190 214 240 254 217 203 201 198 193 200 203 200 196 195 194 194 192 185 186 186 172 175 189 195 193 192 200 207 208 205 215 222 224
145 134 139 155 102 226 244 233 186 197 225 217 238 257 244 237 231 204 188 192 203 203 199 198 195 193 192 184 180 175 165 169 181 191 197 196 194 203 205 203 212 219 216 221
151 141 128 135 191 266 282 216 169 186 246 215 233 268 269 244 100 315 215 203 208 202 197 194 189 182 174 173 168 157 164 172 182 195 202 200 196 200 201 207 216 214 210 224
76 103 120 138 178 232 244 208 148 131 274 227 206 243 242 118 136 251 248 209 212 184 173 166 153 148 160 165 154 158 170 176 194 202 204 199 195 197 204 211 214 209 210 228
87 85 140 166 213 259 256 235 124 169 243 250 200 204 157 165 201 266 288 173 167 144 139 141 143 152 164 153 151 164 173 194 201 189 188 192 195 199 206 209 211 212 219 233
175 161 176 155 195 253 270 136 181 218 267 156 155 138 144 177 34 39 55 83 97 102 105 121 129 129 129 142 152 163 186 194 163 159 174 189 193 200 201 200 214 214 216 235
202 193 187 189 213 247 256 233 254 195 225 252 167 79 119 92 49 50 54 64 72 85 100 110 114 107 106 132 150 165 184 151 143 152 173 183 185 195 196 197 212 219 216 229
252 169 174 258 268 263 261 253 241 192 185 73 71 70 91 91 76 65 63 67 72 74 88 99 106 108 112 125 138 149 139 140 143 158 175 178 187 204 212 215 216 222 229 237
226 177 203 255 273 303 298 246 197 120 93 78 69 76 94 104 91 88 77 70 81 86 90 101 111 119 126 124 124 124 131 137 143 156 171 183 197 210 228 234 232 230 233 228
202 190 190 227 228 197 255 320 104 101 87 89 86 73 66 90 98 89 82 79 84 87 90 94 97 100 103 108 109 105 124 137 142 151 170 185 204 225 239 256 274 251 247 258